TimeCDT,TemperatureF,Dew PointF,Humidity,Sea Level PressureIn,VisibilityMPH,Wind Direction,Wind SpeedMPH,Gust SpeedMPH,PrecipitationIn,Events,Conditions,WindDirDegrees,DateUTC
1:53 AM,57.9,44.1,60,29.98,10.0,Calm,Calm,-,N/A,,Mostly Cloudy,0,2013-03-21 06:53:00
2:53 AM,55.9,45.0,67,29.97,10.0,Calm,Calm,-,N/A,,Mostly Cloudy,0,2013-03-21 07:53:00
3:53 AM,54.0,45.0,72,29.94,10.0,SE,3.5,-,N/A,,Partly Cloudy,140,2013-03-21 08:53:00
4:53 AM,55.0,44.1,67,29.92,10.0,Calm,Calm,-,N/A,,Mostly Cloudy,0,2013-03-21 09:53:00
5:21 AM,53.6,44.6,72,29.93,10.0,Calm,Calm,-,N/A,,Overcast,0,2013-03-21 10:21:00
5:53 AM,55.0,45.0,69,29.92,10.0,Calm,Calm,-,N/A,,Overcast,0,2013-03-21 10:53:00
6:41 AM,53.6,46.4,77,29.92,10.0,South,3.5,-,N/A,,Scattered Clouds,190,2013-03-21 11:41:00
6:53 AM,55.0,48.0,77,29.91,10.0,South,3.5,-,N/A,,Partly Cloudy,190,2013-03-21 11:53:00
7:53 AM,51.1,46.9,86,29.90,10.0,Calm,Calm,-,N/A,,Partly Cloudy,0,2013-03-21 12:53:00
8:53 AM,57.0,51.1,81,29.89,10.0,South,4.6,-,N/A,,Scattered Clouds,170,2013-03-21 13:53:00
9:01 AM,57.2,51.8,82,29.90,10.0,Calm,Calm,-,N/A,,Mostly Cloudy,0,2013-03-21 14:01:00
9:53 AM,62.1,55.0,78,29.89,10.0,SSE,6.9,-,N/A,,Overcast,150,2013-03-21 14:53:00
10:09 AM,62.6,55.4,77,29.89,10.0,South,12.7,-,N/A,,Overcast,170,2013-03-21 15:09:00
10:53 AM,66.0,55.9,70,29.86,10.0,South,11.5,20.7,N/A,,Overcast,170,2013-03-21 15:53:00
11:53 AM,69.1,55.0,61,29.84,10.0,South,12.7,-,N/A,,Overcast,170,2013-03-21 16:53:00
12:53 PM,72.0,55.9,57,29.80,10.0,South,15.0,24.2,N/A,,Overcast,170,2013-03-21 17:53:00
1:53 PM,71.1,55.9,59,29.76,10.0,South,13.8,20.7,N/A,,Overcast,180,2013-03-21 18:53:00
2:53 PM,73.9,57.0,55,29.71,10.0,South,12.7,-,N/A,,Overcast,190,2013-03-21 19:53:00
3:53 PM,73.9,57.0,55,29.68,10.0,South,11.5,16.1,N/A,,Overcast,190,2013-03-21 20:53:00
4:53 PM,75.0,57.9,55,29.64,10.0,South,13.8,21.9,N/A,,Overcast,170,2013-03-21 21:53:00
5:53 PM,75.0,59.0,57,29.62,10.0,SSW,13.8,21.9,N/A,,Mostly Cloudy,200,2013-03-21 22:53:00
6:53 PM,73.9,59.0,59,29.62,10.0,SSW,11.5,-,N/A,,Mostly Cloudy,200,2013-03-21 23:53:00
7:53 PM,73.0,59.0,61,29.64,10.0,South,10.4,-,N/A,,Overcast,170,2013-03-22 00:53:00
8:53 PM,70.0,60.1,71,29.65,10.0,SSE,10.4,-,N/A,,Mostly Cloudy,160,2013-03-22 01:53:00
9:53 PM,68.0,60.1,76,29.66,10.0,SE,8.1,-,N/A,,Mostly Cloudy,140,2013-03-22 02:53:00
10:53 PM,66.0,61.0,84,29.66,10.0,SSE,9.2,-,N/A,,Clear,150,2013-03-22 03:53:00
11:32 PM,64.4,60.8,88,29.67,10.0,SSE,9.2,-,N/A,,Mostly Cloudy,160,2013-03-22 04:32:00
11:53 PM,64.9,62.1,90,29.65,10.0,SSE,10.4,-,N/A,,Overcast,150,2013-03-22 04:53:00